FW4263 Weather Reports


time (UTC)temp
C
wind
direction
speed
KPH
gust
KPH
rain 1hr
cm
rain 24hr
cm
rain mn
cm
humidity
%
barometer
mb
20260510192500 28 112 1.6 3.2 0.00 0.00 0.00 59 1015.7
20260510192000 28 93 1.6 3.2 0.00 0.00 0.00 59 1015.7
20260510191459 28 74 1.6 3.2 0.00 0.00 0.00 60 1015.8
20260510191001 28 82 1.6 4.8 0.00 0.00 0.00 57 1015.9
20260510190459 28 45 0.0 4.8 0.00 0.00 0.00 61 1015.8
20260510190005 28 161 0.0 3.2 0.00 0.00 0.00 63 1016.1
20260510184504 28 158 1.6 4.8 0.00 0.00 0.00 57 1016.1
20260510184000 27 105 1.6 4.8 0.00 0.00 0.00 58 1016.0
20260510183501 27 336 1.6 3.2 0.00 0.00 0.00 56 1016.1
20260510183000 27 43 0.0 3.2 0.00 0.00 0.00 58 1015.9
20260510182502 27 40 0.0 3.2 0.00 0.00 0.00 64 1015.9
20260510182002 27 40 0.0 1.6 0.00 0.00 0.00 66 1015.9
20260510181002 26 41 1.6 3.2 0.00 0.00 0.00 64 1015.9
20260510180001 26 81 1.6 4.8 0.00 0.00 0.00 69 1016.0
20260510175001 27 80 0.0 3.2 0.00 0.00 0.00 65 1016.0
20260510174459 27 80 1.6 3.2 0.00 0.00 0.00 68 1016.0
20260510173959 27 80 1.6 4.8 0.00 0.00 0.00 63 1016.1
20260510173000 26 140 1.6 3.2 0.00 0.00 0.00 64 1016.1
20260510172459 26 138 1.6 4.8 0.00 0.00 0.00 62 1016.2
20260510171959 26 138 1.6 4.8 0.00 0.00 0.00 69 1016.1
20260510171502 26 127 1.6 3.2 0.00 0.00 0.00 66 1016.2
20260510171000 26 127 1.6 6.4 0.00 0.00 0.00 68 1016.2
20260510170500 26 57 0.0 3.2 0.00 0.00 0.00 71 1016.3
20260510170002 26 61 0.0 3.2 0.00 0.00 0.00 68 1016.3
20260510165459 26 47 0.0 1.6 0.00 0.00 0.00 69 1016.4
20260510163959 26 30 1.6 4.8 0.00 0.00 0.00 72 1016.5
20260510163501 26 146 1.6 3.2 0.00 0.00 0.00 69 1016.4
20260510163001 26 32 1.6 3.2 0.00 0.00 0.00 75 1016.6
20260510162459 25 32 1.6 3.2 0.00 0.00 0.00 76 1016.6
20260510161959 25 32 1.6 3.2 0.00 0.00 0.00 73 1016.6
20260510161459 25 31 1.6 3.2 0.00 0.00 0.00 73 1016.7
20260510160959 25 119 1.6 3.2 0.00 0.00 0.00 73 1016.7
20260510160500 25 134 0.0 3.2 0.00 0.00 0.00 78 1016.6
20260510160004 25 136 0.0 3.2 0.00 0.00 0.00 78 1016.6
20260510155501 24 131 1.6 4.8 0.00 0.00 0.00 77 1016.5
20260510155001 24 131 1.6 4.8 0.00 0.00 0.00 80 1016.4
20260510154501 24 171 1.6 3.2 0.00 0.00 0.00 78 1016.4
20260510153959 24 169 1.6 3.2 0.00 0.00 0.00 79 1016.4
20260510153501 23 169 1.6 3.2 0.00 0.00 0.00 79 1016.2
20260510153000 23 167 1.6 4.8 0.00 0.00 0.00 78 1016.4
20260510152459 24 167 1.6 4.8 0.00 0.00 0.00 79 1016.3
20260510152000 23 174 1.6 3.2 0.00 0.00 0.00 78 1016.3
20260510151500 23 78 0.0 3.2 0.00 0.00 0.00 81 1016.3
20260510151002 23 206 0.0 3.2 0.00 0.00 0.00 81 1016.2
20260510150459 23 208 0.0 1.6 0.00 0.00 0.00 83 1016.3
20260510150002 22 208 0.0 1.6 0.00 0.00 0.00 84 1016.3
20260510145500 22 208 1.6 3.2 0.00 0.00 0.00 85 1016.1
20260510144959 22 208 1.6 3.2 0.00 0.00 0.00 85 1016.1
20260510144500 22 323 1.6 3.2 0.00 0.00 0.00 86 1016.1
20260510143959 22 323 0.0 3.2 0.00 0.00 0.00 88 1016.1
20260510143500 21 325 0.0 1.6 0.00 0.00 0.00 89 1016.3
20260510143000 21 325 0.0 3.2 0.00 0.00 0.00 89 1016.4
20260510141501 21 325 0.0 1.6 0.00 0.00 0.00 91 1016.3
20260510140459 20 337 0.0 3.2 0.00 0.00 0.00 92 1016.3
20260510140005 20 337 0.0 3.2 0.00 0.00 0.00 93 1016.2
20260510135000 20 327 0.0 0.0 0.00 0.00 0.00 95 1016.0
20260510134459 19 327 0.0 0.0 0.00 0.00 0.00 95 1016.0
20260510134000 19 327 0.0 0.0 0.00 0.00 0.00 95 1015.8
20260510133459 19 327 0.0 0.0 0.00 0.00 0.00 96 1015.9
20260510132959 18 327 0.0 0.0 0.00 0.00 0.00 95 1015.8
20260510132459 18 327 0.0 0.0 0.00 0.00 0.00 96 1015.9
20260510131959 18 327 0.0 0.0 0.00 0.00 0.00 96 1015.9
20260510131459 18 327 0.0 0.0 0.00 0.00 0.00 96 1015.9
20260510130959 18 327 0.0 0.0 0.00 0.00 0.00 96 1016.0
20260510130002 17 101 0.0 0.0 0.00 0.00 0.00 97 1015.9
20260510125459 17 101 0.0 0.0 0.00 0.00 0.00 97 1016.0
20260510124959 17 101 0.0 0.0 0.00 0.00 0.00 97 1015.9
20260510124459 17 101 0.0 0.0 0.00 0.00 0.00 97 1015.9
20260510124001 17 101 0.0 0.0 0.00 0.00 0.00 97 1015.7
20260510123000 16 101 0.0 0.0 0.00 0.00 0.00 97 1015.7
20260510122500 16 101 0.0 0.0 0.00 0.00 0.00 97 1015.7
20260510122000 16 101 0.0 0.0 0.00 0.00 0.00 97 1015.7
20260510121500 16 101 0.0 0.0 0.00 0.00 0.00 97 1015.6
20260510120959 16 101 0.0 0.0 0.00 0.00 0.00 97 1015.5
20260510120500 15 101 0.0 1.6 0.00 0.00 0.00 97 1015.5
20260510115500 15 318 0.0 0.0 0.00 0.00 0.00 97 1015.3
20260510115000 15 318 0.0 0.0 0.00 0.00 0.00 97 1015.4
20260510114501 15 318 0.0 0.0 0.00 0.00 0.00 96 1015.4
20260510113959 15 318 0.0 0.0 0.00 0.00 0.00 96 1015.4
20260510113459 14 318 0.0 0.0 0.00 0.00 0.00 96 1015.3
20260510112959 14 318 0.0 1.6 0.00 0.00 0.00 95 1015.1
20260510112500 14 318 0.0 1.6 0.00 0.00 0.00 95 1015.0
20260510111959 14 5 0.0 0.0 0.00 0.00 0.00 95 1014.9
20260510111459 14 5 0.0 0.0 0.00 0.00 0.00 95 1014.8
20260510110959 14 5 0.0 1.6 0.00 0.00 0.00 95 1014.7
20260510110500 14 5 0.0 1.6 0.00 0.00 0.00 95 1014.5
20260510110003 14 217 0.0 0.0 0.00 0.00 0.00 95 1014.5
20260510105459 14 217 0.0 0.0 0.00 0.00 0.00 95 1014.4
20260510105003 14 217 0.0 0.0 0.00 0.00 0.00 94 1014.3
20260510103959 14 309 0.0 0.0 0.00 0.00 0.00 94 1014.1
20260510102959 14 309 0.0 0.0 0.00 0.00 0.00 94 1013.9
20260510102000 14 309 0.0 0.0 0.00 0.00 0.00 93 1013.9
20260510101500 14 309 0.0 0.0 0.00 0.00 0.00 93 1013.9
20260510100959 14 309 0.0 0.0 0.00 0.00 0.00 92 1013.9
20260510100500 14 309 0.0 0.0 0.00 0.00 0.00 92 1013.9
20260510100003 14 309 0.0 0.0 0.00 0.00 0.00 92 1013.8
20260510095001 14 309 0.0 0.0 0.00 0.00 0.00 92 1013.6
20260510093959 13 309 0.0 0.0 0.00 0.00 0.00 91 1013.6
20260510093459 13 309 0.0 0.0 0.00 0.00 0.00 91 1013.6
20260510093001 13 309 0.0 0.0 0.00 0.00 0.00 91 1013.5
20260510092459 13 309 0.0 0.0 0.00 0.00 0.00 90 1013.6
20260510092000 13 309 0.0 0.0 0.00 0.00 0.00 90 1013.5
20260510091501 13 309 0.0 0.0 0.00 0.00 0.00 90 1013.5
20260510090959 13 309 0.0 0.0 0.00 0.00 0.00 89 1013.5
20260510090002 13 309 0.0 1.6 0.00 0.00 0.00 88 1013.4
20260510085459 13 309 1.6 1.6 0.00 0.00 0.00 88 1013.5
20260510085000 13 309 1.6 3.2 0.00 0.00 0.00 88 1013.5
20260510084500 13 309 0.0 3.2 0.00 0.00 0.00 88 1013.4
20260510083959 13 309 0.0 1.6 0.00 0.00 0.00 87 1013.5
20260510083459 13 309 0.0 0.0 0.00 0.00 0.00 88 1013.4
20260510083000 13 309 0.0 0.0 0.00 0.00 0.00 87 1013.4
20260510082500 13 309 0.0 0.0 0.00 0.00 0.00 88 1013.4
20260510080959 13 309 0.0 1.6 0.00 0.00 0.00 87 1013.2
20260510080500 13 309 0.0 1.6 0.00 0.00 0.00 87 1013.0
20260510080003 13 309 0.0 0.0 0.00 0.00 0.00 87 1012.9
20260510075459 13 309 0.0 0.0 0.00 0.00 0.00 87 1013.0
20260510075000 13 309 0.0 0.0 0.00 0.00 0.00 87 1013.1
20260510074459 13 309 0.0 0.0 0.00 0.00 0.00 88 1012.8
20260510073459 13 309 0.0 0.0 0.00 0.00 0.00 86 1012.8
20260510072959 13 309 0.0 0.0 0.00 0.00 0.00 85 1012.9
20260510072459 13 309 0.0 0.0 0.00 0.00 0.00 86 1013.0
20260510071959 13 309 0.0 1.6 0.00 0.00 0.00 87 1013.1
20260510071500 13 309 0.0 1.6 0.00 0.00 0.00 86 1013.2
20260510071000 13 309 0.0 1.6 0.00 0.00 0.00 87 1013.2
20260510070500 13 309 0.0 0.0 0.00 0.00 0.00 86 1013.2
20260510070003 13 309 0.0 0.0 0.00 0.00 0.00 87 1013.2
20260510065459 13 309 0.0 1.6 0.00 0.00 0.00 86 1013.3
20260510064959 13 309 0.0 1.6 0.00 0.00 0.00 86 1013.1
20260510064459 13 309 0.0 1.6 0.00 0.00 0.00 85 1013.3
20260510063959 14 309 0.0 0.0 0.00 0.00 0.00 86 1013.3
20260510063458 14 309 0.0 0.0 0.00 0.00 0.00 85 1013.1
20260510063000 14 309 0.0 0.0 0.00 0.00 0.00 85 1013.0
20260510062000 13 309 0.0 0.0 0.00 0.00 0.00 84 1012.8
20260510061000 14 309 0.0 1.6 0.00 0.00 0.00 84 1012.7
20260510060459 14 309 0.0 1.6 0.00 0.00 0.00 85 1012.7
20260510060003 14 309 0.0 0.0 0.00 0.00 0.00 83 1012.7
20260510055459 14 309 0.0 0.0 0.00 0.00 0.00 83 1012.7
20260510054959 14 309 0.0 0.0 0.00 0.00 0.00 84 1012.7
20260510053958 14 309 0.0 0.0 0.00 0.00 0.00 85 1012.7
20260510053458 14 309 0.0 0.0 0.00 0.00 0.00 85 1012.6
20260510052958 14 309 0.0 0.0 0.00 0.00 0.00 86 1012.6
20260510052459 14 309 0.0 0.0 0.00 0.00 0.00 84 1012.6
20260510051959 14 309 0.0 0.0 0.00 0.00 0.00 84 1012.6
20260510051500 14 309 0.0 0.0 0.00 0.00 0.00 84 1012.6
20260510051000 14 309 0.0 0.0 0.00 0.00 0.00 85 1012.6
20260510050459 15 309 0.0 0.0 0.00 0.00 0.00 84 1012.6
20260510045502 15 309 0.0 0.0 0.00 0.00 0.00 83 1012.6
20260510045002 15 309 0.0 1.6 0.00 0.00 0.00 84 1012.6
20260510044000 15 309 0.0 0.0 0.00 0.00 0.00 85 1012.5
20260510043503 15 309 0.0 0.0 0.00 0.00 0.00 85 1012.6
20260510043002 15 309 0.0 0.0 0.00 0.00 0.00 84 1012.5
20260510042000 15 309 0.0 0.0 0.00 0.00 0.00 83 1012.5
20260510041500 15 309 0.0 1.6 0.00 0.00 0.00 83 1012.5
20260510041000 15 309 0.0 1.6 0.00 0.00 0.00 82 1012.5
20260510040502 15 309 0.0 1.6 0.00 0.00 0.00 81 1012.4
20260510040005 15 309 0.0 1.6 0.00 0.00 0.00 82 1012.5
20260510035500 15 309 0.0 0.0 0.00 0.00 0.00 82 1012.5
20260510035002 15 309 0.0 0.0 0.00 0.00 0.00 82 1012.5
20260510034500 15 309 0.0 0.0 0.00 0.00 0.00 81 1012.6
20260510034001 15 309 0.0 0.0 0.00 0.00 0.00 80 1012.6
20260510032501 16 309 0.0 0.0 0.00 0.00 0.00 78 1012.6
20260510032002 16 309 0.0 1.6 0.00 0.00 0.00 79 1012.7
20260510031502 16 309 0.0 1.6 0.00 0.00 0.00 79 1012.6
20260510031000 16 309 0.0 1.6 0.00 0.00 0.00 77 1012.6
20260510030502 16 309 0.0 1.6 0.00 0.00 0.00 79 1012.6
20260510030003 16 309 0.0 1.6 0.00 0.00 0.00 77 1012.6
20260510025502 16 309 0.0 1.6 0.00 0.00 0.00 79 1012.5
20260510025001 16 309 0.0 1.6 0.00 0.00 0.00 77 1012.6
20260510024502 16 309 0.0 1.6 0.00 0.00 0.00 77 1012.5
20260510024001 17 309 0.0 1.6 0.00 0.00 0.00 77 1012.4
20260510023503 17 309 0.0 1.6 0.00 0.00 0.00 76 1012.4
20260510023004 17 309 0.0 0.0 0.00 0.00 0.00 76 1012.4
20260510021500 17 309 0.0 0.0 0.00 0.00 0.00 76 1012.2
20260510021002 17 309 0.0 0.0 0.00 0.00 0.00 71 1012.2
20260510020006 18 309 0.0 0.0 0.00 0.00 0.00 71 1012.0
20260510015501 18 309 0.0 0.0 0.00 0.00 0.00 73 1011.9
20260510014501 18 309 0.0 1.6 0.00 0.00 0.00 75 1011.8
20260510014001 18 309 0.0 1.6 0.00 0.00 0.00 73 1011.8
20260510013502 18 309 0.0 1.6 0.00 0.00 0.00 73 1011.7
20260510013002 19 309 0.0 0.0 0.00 0.00 0.00 72 1011.7
20260510012502 19 309 0.0 1.6 0.00 0.00 0.00 73 1011.7
20260510012001 20 309 0.0 1.6 0.00 0.00 0.00 72 1011.6
20260510011500 20 309 0.0 1.6 0.00 0.00 0.00 70 1011.5
20260510011000 20 309 0.0 1.6 0.00 0.00 0.00 70 1011.5
20260510010502 20 309 0.0 1.6 0.00 0.00 0.00 70 1011.4
20260510010006 21 309 0.0 1.6 0.00 0.00 0.00 67 1011.3
20260510005000 21 309 0.0 1.6 0.00 0.00 0.00 67 1011.2
20260510004502 21 309 0.0 1.6 0.00 0.00 0.00 66 1011.1
20260510004000 22 309 0.0 1.6 0.00 0.00 0.00 64 1011.0
20260510003002 22 140 0.0 1.6 0.00 0.00 0.00 62 1010.9
20260510002501 22 140 0.0 0.0 0.00 0.00 0.00 61 1010.8
20260510002001 22 140 0.0 0.0 0.00 0.00 0.00 60 1010.7
20260510001503 23 140 0.0 1.6 0.00 0.00 0.00 57 1010.7
20260510001000 23 140 0.0 1.6 0.00 0.00 0.00 58 1010.7
20260510000501 23 140 0.0 0.0 0.00 0.00 0.00 58 1010.6
20260510000005 23 140 0.0 0.0 0.00 0.00 0.00 56 1010.5
20260509235500 23 140 0.0 0.0 0.00 0.00 0.00 58 1010.5
20260509234500 24 163 0.0 1.6 0.00 0.00 0.00 55 1010.3
20260509234001 24 163 0.0 1.6 0.00 0.00 0.00 54 1010.3
20260509233501 24 163 0.0 1.6 0.00 0.00 0.00 53 1010.3
20260509233002 25 163 0.0 0.0 0.00 0.00 0.00 54 1010.3
20260509232502 25 163 0.0 0.0 0.00 0.00 0.00 51 1010.3
20260509232000 25 163 0.0 1.6 0.00 0.00 0.00 51 1010.2
20260509231500 25 163 0.0 1.6 0.00 0.00 0.00 48 1010.2
20260509231000 25 163 0.0 1.6 0.00 0.00 0.00 49 1010.2
20260509230500 25 163 0.0 1.6 0.00 0.00 0.00 49 1010.1
20260509230004 25 163 0.0 1.6 0.00 0.00 0.00 48 1010.0
20260509225502 25 163 0.0 1.6 0.00 0.00 0.00 43 1010.1
20260509225000 25 163 0.0 1.6 0.00 0.00 0.00 47 1010.1
20260509224502 25 163 0.0 1.6 0.00 0.00 0.00 45 1010.1
20260509224000 25 163 0.0 1.6 0.00 0.00 0.00 42 1010.0
20260509223500 25 163 0.0 3.2 0.00 0.00 0.00 45 1010.1
20260509223000 25 163 0.0 1.6 0.00 0.00 0.00 43 1010.1
20260509222500 25 163 0.0 1.6 0.00 0.00 0.00 47 1010.2
20260509222002 25 163 0.0 3.2 0.00 0.00 0.00 45 1010.2
20260509221502 26 163 0.0 1.6 0.00 0.00 0.00 43 1010.3
20260509220500 26 163 0.0 1.6 0.00 0.00 0.00 46 1010.2
20260509220003 26 163 0.0 1.6 0.00 0.00 0.00 44 1010.3
20260509215500 26 163 0.0 1.6 0.00 0.00 0.00 46 1010.2
20260509215001 26 163 0.0 0.0 0.00 0.00 0.00 44 1010.4
20260509214502 26 162 0.0 1.6 0.00 0.00 0.00 45 1010.4
20260509214000 26 162 0.0 1.6 0.00 0.00 0.00 41 1010.5
20260509213000 26 162 1.6 3.2 0.00 0.00 0.00 41 1010.5
20260509212500 26 162 1.6 3.2 0.00 0.00 0.00 42 1010.4
20260509211501 26 154 1.6 3.2 0.00 0.00 0.00 43 1010.4
20260509211001 27 154 3.2 8.0 0.00 0.00 0.00 41 1010.5
20260509210501 27 154 1.6 8.0 0.00 0.00 0.00 40 1010.5
20260509210004 27 153 1.6 4.8 0.00 0.00 0.00 39 1010.5
20260509205501 27 105 1.6 3.2 0.00 0.00 0.00 41 1010.5
20260509205001 27 51 1.6 3.2 0.00 0.00 0.00 40 1010.5
20260509204501 28 160 1.6 4.8 0.00 0.00 0.00 43 1010.4
20260509203501 27 17 0.0 3.2 0.00 0.00 0.00 41 1010.5
20260509203000 27 122 0.0 3.2 0.00 0.00 0.00 41 1010.4
20260509201501 27 203 1.6 4.8 0.00 0.00 0.00 42 1010.6
20260509201000 27 350 1.6 4.8 0.00 0.00 0.00 47 1010.5
20260509200503 27 347 1.6 4.8 0.00 0.00 0.00 44 1010.7
20260509195501 27 212 1.6 4.8 0.00 0.00 0.00 46 1010.7
20260509195000 27 144 1.6 4.8 0.00 0.00 0.00 45 1010.7
20260509194500 27 219 1.6 4.8 0.00 0.00 0.00 42 1010.6
20260509194000 27 213 1.6 4.8 0.00 0.00 0.00 44 1010.8
20260509193500 27 346 1.6 6.4 0.00 0.00 0.00 48 1010.7
20260509193003 27 346 1.6 6.4 0.00 0.00 0.00 44 1010.7